Oakland, CA

3:43 AM PDT on April 29, 2017 (GMT -0700)
Metro Oakland International

Weather History for KOAK - March, 2014

Change the Weather History Date:

Sunday, March 30, 2014

  Actual Average Record
Temperature  
Mean Temperature 56 °F 56 °F  
Max Temperature 61 °F 65 °F 81 °F (2011)
Min Temperature 50 °F 47 °F 39 °F (1955)
Degree Days  
Heating Degree Days 9 9  
Month to date heating degree days 173 323  
Since 1 July heating degree days 1994 2345  
Cooling Degree Days 0 0  
Month to date cooling degree days 1 0  
Year to date cooling degree days 1 0  
Growing Degree Days 5 (Base 50)    
Moisture  
Dew Point 44 °F    
Average Humidity 64    
Maximum Humidity 77    
Minimum Humidity 51    
Precipitation  
Precipitation 0.00 in 0.08 in 0.89 in (1967)
Month to date precipitation 2.08 3.00  
Year to date precipitation 5.78 10.94  
Since 1 July precipitation 7.85  
Sea Level Pressure  
Sea Level Pressure 30.11 in    
Wind  
Wind Speed 10 mph (West)    
Max Wind Speed 17 mph    
Max Gust Speed 21 mph    
Visibility 10 miles    
Events      
T = Trace of Precipitation, MM = Missing Value Source: NWS Daily Summary

Daily Weather History Graph

Daily Weather History Graph

Search for Another Location

Airport or City:

Trip Planner

Search our weather history database for the weather conditions in past years. The results will help you decide how hot, cold, wet, or windy it might be!

Date:

Astronomy

Mar. 30, 2014 Rise Set
Actual Time 6:57 AM PDT 7:30 PM PDT
Civil Twilight 6:30 AM PDT 7:56 PM PDT
Nautical Twilight 5:59 AM PDT 8:27 PM PDT
Astronomical Twilight 5:27 AM PDT 8:59 PM PDT
Moon 6:46 AM PDT (3/30) 7:48 PM PDT (3/30)
Length of Visible Light 13h 25m
Length of Day
12h 32m
New Moon, 0% of the Moon is Illuminated
Mar 30
New Moon
Apr 7
First Quarter
Apr 15
Full
Apr 22
Last Quarter
Apr 28
New

Hourly Weather History & Observations

Time (PDT) Temp. Dew Point Humidity Pressure Visibility Wind Dir Wind Speed Gust Speed Precip Events Conditions
12:53 AM 54.0 °F 46.0 °F 75% 30.06 in 10.0 mi West 12.7 mph - N/A   Mostly Cloudy
1:53 AM 54.0 °F 46.0 °F 75% 30.06 in 10.0 mi WNW 13.8 mph - N/A   Scattered Clouds
2:53 AM 52.0 °F 44.1 °F 74% 30.06 in 10.0 mi NNW 6.9 mph - N/A   Scattered Clouds
3:53 AM 52.0 °F 44.1 °F 74% 30.07 in 10.0 mi NW 5.8 mph - N/A   Partly Cloudy
4:53 AM 53.1 °F 45.0 °F 74% 30.07 in 10.0 mi WNW 15.0 mph - N/A   Scattered Clouds
5:53 AM 50.0 °F 43.0 °F 77% 30.07 in 10.0 mi Calm Calm - N/A   Partly Cloudy
6:53 AM 52.0 °F 45.0 °F 77% 30.09 in 10.0 mi West 12.7 mph - N/A   Partly Cloudy
7:53 AM 51.1 °F 44.1 °F 77% 30.10 in 10.0 mi Calm Calm - N/A   Partly Cloudy
8:53 AM 54.0 °F 46.0 °F 75% 30.13 in 10.0 mi ENE 4.6 mph - N/A   Partly Cloudy
9:53 AM 55.9 °F 44.1 °F 64% 30.13 in 10.0 mi NW 4.6 mph - N/A   Mostly Cloudy
10:53 AM 57.9 °F 44.1 °F 60% 30.14 in 10.0 mi West 6.9 mph - N/A   Mostly Cloudy
11:53 AM 60.1 °F 45.0 °F 57% 30.14 in 10.0 mi West 11.5 mph - N/A   Mostly Cloudy
12:53 PM 60.1 °F 46.0 °F 60% 30.14 in 10.0 mi West 15.0 mph - N/A   Mostly Cloudy
1:53 PM 60.1 °F 45.0 °F 57% 30.14 in 10.0 mi West 16.1 mph - N/A   Mostly Cloudy
2:53 PM 60.1 °F 44.1 °F 55% 30.14 in 10.0 mi West 13.8 mph - N/A   Mostly Cloudy
3:53 PM 60.1 °F 43.0 °F 53% 30.12 in 10.0 mi WSW 11.5 mph - N/A   Mostly Cloudy
4:53 PM 60.1 °F 42.1 °F 51% 30.10 in 10.0 mi West 12.7 mph - N/A   Mostly Cloudy
5:53 PM 59.0 °F 42.1 °F 53% 30.10 in 10.0 mi West 13.8 mph - N/A   Scattered Clouds
6:53 PM 57.0 °F 41.0 °F 55% 30.12 in 10.0 mi West 15.0 mph - N/A   Scattered Clouds
7:53 PM 55.9 °F 44.1 °F 64% 30.12 in 10.0 mi West 12.7 mph - N/A   Mostly Cloudy
8:53 PM 55.0 °F 42.1 °F 62% 30.12 in 10.0 mi West 12.7 mph - N/A   Scattered Clouds
9:53 PM 54.0 °F 42.1 °F 64% 30.12 in 10.0 mi West 12.7 mph - N/A   Partly Cloudy
10:53 PM 54.0 °F 42.1 °F 64% 30.10 in 10.0 mi West 6.9 mph - N/A   Partly Cloudy
11:53 PM 53.1 °F 41.0 °F 64% 30.09 in 10.0 mi WSW 5.8 mph - N/A   Partly Cloudy